Simultaneous Nadir Overpasses (SNOs) Predictions

Prediction of SNOs between METOP-A and TERRA Satellite Orbit:

Table of predicted SNOs for the next 14.0 days since TLE Epoch: 4/16/2012
Index Date (METOP-A) Time (METOP-A) METOP-A Lat,Lon Date (TERRA) Time (TERRA) TERRA Lat,Lon Distance(km) Time Diff (sec)
1 04/16/2012 23:27:09 81.30,-124.96 04/16/2012 23:27:56 81.29,-125.10 2.71 47
2 04/17/2012 00:17:48 -81.31, 42.96 04/17/2012 00:17:22 -81.30, 42.82 2.46 26
3 04/19/2012 19:01:35 81.30, -58.27 04/19/2012 19:02:13 81.30, -58.40 2.13 38
4 04/19/2012 19:52:15 -81.30, 109.28 04/19/2012 19:51:40 -81.30, 109.17 1.97 35
5 04/22/2012 14:36:06 81.30, 7.67 04/22/2012 14:36:31 81.29, 7.84 2.93 25
6 04/22/2012 15:26:45 -81.30, 175.65 04/22/2012 15:25:57 -81.31, 175.82 2.98 48
7 04/25/2012 10:10:37
